Tracking 25656 objects as of 21-May-2022
HD Live streaming from Space Station
objects crossing your sky now

FLOCK 4V 11

Track FLOCK 4V 11 now!
10-day predictions
FLOCK 4V 11 is classified as:


NORAD ID: 46285
Int'l Code: 2020-061P
Perigee: 529.4 km
Apogee: 534.0 km
Inclination: 97.4 °
Period: 95.1 minutes
Semi major axis: 6902 km
RCS: Unknown
Launch date: September 3, 2020
Source: United States (US)
Launch site: FRENCH GUIANA (FRGUI)
aabbcc
Your satellite tracking list
Your tracking list is empty




NASA's NSSDC Master Catalog

Two Line Element Set (TLE):
1 46285U 20061P   22141.14183882  .00008901  00000-0  49605-3 0  9994
2 46285  97.4481 211.9309 0003293  21.5944 338.5426 15.13821439 94367
Source of the keplerian elements: AFSPC